Weather in Bogorodsk

Russia / Perm Krai     56°41′43″N   56°56′14″E
temp.,
°C
wind,
m/s
gust,
m/s
humid.,
%
clouds,
%
prec.,
mm/h
press.,
hPa
HPBL,
m
17 may, mon
mon1723:00+20ssw411545 0.0 1017168
02:00+18sw413615 0.0 1018258
05:00+16s476920 0.1 1017101
08:00+20ssw51161100 0.0 1018346
11:00+24sw694735 0.0 1018786
14:00+27wsw710388 0.0 10171505
17:00+28wsw6124095 0.0 10162875
20:00+24w3656100 0.0 1016101
18 may, tue
tue1823:00+19wnw227017 0.2 101626
02:00+16wsw118091 1.8 101711
05:00+15w22835 1.8 101716
08:00+17nnw357142 0.0 1018284
11:00+21nnw46594 0.0 10181246
14:00+22n56481 0.0 10191503
17:00+22n564598 0.0 10191681
20:00+18n486143 0.0 1020310
19 may, wed
wed1923:00+15e511674 0.0 1022371
02:00+12e511720 0.0 1023340
05:00+10e410810 0.0 1024313
08:00+12ese47675 0.0 1025545
11:00+17ese45471 0.0 1024877
14:00+21ese34362 0.0 10231292
17:00+22ese33335 0.0 10231563
20:00+19se2352100 0.0 102339
20 may, thu
thu2023:00+15se225331 0.0 102311
02:00+13se336058 0.0 102424
05:00+11sse346499 0.0 102463
08:00+15s3759100 0.0 1024217
11:00+20ssw4546100 0.0 1024809
14:00+22sw3441100 0.0 10231296
17:00+23wsw3439100 0.0 10221489
20:00+19wsw2258100 0.0 102228
21 may, fri
fri2123:00+16sw226662 0.0 102218
02:00+14sw117198 0.0 102211
05:00+13ssw227398 0.0 102315
08:00+17sw116129 0.0 1023140
11:00+22wsw22443 0.0 1022885
14:00+25wsw343460 0.0 10211882
17:00+24w443582 0.0 10211652
20:00+21wsw345698 0.0 102162